Fairbanks, AK

2:52 AM AKDT on October 15, 2019 (GMT -0800)
Fairbanks International

Weather History for PAFA - May, 2019

Change the Weather History Date:

Friday, May 10, 2019

  Actual Average Record
Temperature  
Mean Temperature 56 °F 47 °F  
Max Temperature 68 °F 59 °F 84 °F (1995)
Min Temperature 44 °F 36 °F 7 °F (1964)
Degree Days  
Heating Degree Days 9 18  
Month to date heating degree days 180 200  
Since 1 July heating degree days 11442 13224  
Cooling Degree Days 0 0  
Month to date cooling degree days 0 0  
Year to date cooling degree days 0 0  
Growing Degree Days 7 (Base 50)    
Moisture  
Dew Point 28 °F    
Average Humidity 35    
Maximum Humidity 52    
Minimum Humidity 11    
Precipitation  
Precipitation T in 0.01 in 0.28 in (1947)
Month to date precipitation 0.22 0.16  
Year to date precipitation 2.70 1.72  
Snow  
Snow 0.00 in 0.00 in 0.30 in (1924)
Month to date snowfall T 0.5  
Since 1 July snowfall 57.5 64.6  
Snow Depth 0.00 in    
Sea Level Pressure  
Sea Level Pressure 29.56 in    
Wind  
Wind Speed 9 mph (ENE)    
Max Wind Speed 20 mph    
Max Gust Speed 31 mph    
Visibility 10 miles    
Events Rain    
T = Trace of Precipitation, MM = Missing Value Source: NWS Daily Summary

Daily Weather History Graph

Daily Weather History Graph

Search for Another Location

Airport or City:

Astronomy

May. 10, 2019 Rise Set
Actual Time 4:46 AM AKDT 10:51 PM AKDT
Civil Twilight 3:12 AM AKDT 12:29 AM AKDT
Nautical Twilight Sun does not rise Sun does not rise
Astronomical Twilight Sun does not rise Sun does not rise
Moon 9:27 AM AKDT (5/10) 4:24 AM AKDT (5/10)
Length of Visible Light 21h 16m
Length of Day
18h 05m
Waxing Crescent, 36% of the Moon is Illuminated
May 10
Waxing Crescent
May 11
First Quarter
May 18
Full
May 26
Last Quarter
Jun 3
New

Hourly Weather History & Observations

Time (AKDT) Temp. Windchill Dew Point Humidity Pressure Visibility Wind Dir Wind Speed Gust Speed Precip Events Conditions
12:53 AM 51.1 °F - 28.0 °F 41% 29.88 in 10.0 mi NE 10.4 mph - N/A   Mostly Cloudy
1:53 AM 50.0 °F - 28.0 °F 43% 29.85 in 10.0 mi NE 9.2 mph - N/A   Mostly Cloudy
2:53 AM 50.0 °F - 28.9 °F 44% 29.81 in 10.0 mi North 8.1 mph - N/A   Mostly Cloudy
3:53 AM 50.0 °F - 28.0 °F 43% 29.76 in 10.0 mi North 9.2 mph - N/A   Mostly Cloudy
4:53 AM 46.0 °F 43.1 °F 28.9 °F 51% 29.72 in 10.0 mi NNE 5.8 mph - N/A   Mostly Cloudy
5:53 AM 46.0 °F 43.1 °F 28.0 °F 50% 29.68 in 10.0 mi NE 5.8 mph - N/A   Mostly Cloudy
6:53 AM 46.9 °F - 30.0 °F 52% 29.64 in 10.0 mi ENE 6.9 mph - N/A   Mostly Cloudy
7:53 AM 50.0 °F - 30.0 °F 46% 29.61 in 10.0 mi NE 5.8 mph - N/A   Mostly Cloudy
8:53 AM 54.0 °F - 28.9 °F 38% 29.57 in 10.0 mi NE 8.1 mph - N/A   Mostly Cloudy
9:53 AM 55.0 °F - 30.0 °F 38% 29.53 in 10.0 mi NE 9.2 mph - N/A   Mostly Cloudy
10:53 AM 57.9 °F - 30.0 °F 35% 29.50 in 10.0 mi ENE 9.2 mph - N/A   Mostly Cloudy
11:53 AM 60.1 °F - 28.9 °F 31% 29.47 in 10.0 mi ENE 13.8 mph - N/A   Mostly Cloudy
12:53 PM 62.1 °F - 28.9 °F 29% 29.45 in 10.0 mi ENE 15.0 mph 21.9 mph N/A   Mostly Cloudy
1:53 PM 66.0 °F - 30.9 °F 27% 29.44 in 10.0 mi ESE 8.1 mph - N/A   Mostly Cloudy
2:53 PM 68.0 °F - 32.0 °F 26% 29.40 in 10.0 mi SE 9.2 mph - 0.00 in Rain Light Rain
3:53 PM 66.0 °F - 25.0 °F 21% 29.40 in 10.0 mi SSW 10.4 mph - 0.00 in   Mostly Cloudy
4:53 PM 60.1 °F - 33.1 °F 36% 29.43 in 10.0 mi WSW 18.4 mph 26.5 mph N/A   Mostly Cloudy
5:53 PM 62.1 °F - 30.0 °F 30% 29.44 in 10.0 mi WSW 19.6 mph 31.1 mph N/A   Mostly Cloudy
6:53 PM 59.0 °F - 27.0 °F 29% 29.44 in 10.0 mi WSW 12.7 mph 25.3 mph N/A   Mostly Cloudy
7:53 PM 57.9 °F - 27.0 °F 31% 29.46 in 10.0 mi SW 10.4 mph 21.9 mph N/A   Mostly Cloudy
8:53 PM 57.0 °F - 28.0 °F 33% 29.48 in 10.0 mi SSW 6.9 mph 17.3 mph N/A   Mostly Cloudy
9:53 PM 57.0 °F - 25.0 °F 29% 29.50 in 10.0 mi SW 10.4 mph 20.7 mph N/A   Mostly Cloudy
10:53 PM 53.1 °F - 26.1 °F 35% 29.52 in 10.0 mi SW 3.5 mph - N/A   Scattered Clouds
11:53 PM 50.0 °F - 25.0 °F 38% 29.53 in 10.0 mi WSW 4.6 mph - N/A   Scattered Clouds